クリステンセン彗星

170P/Christensen (2023)

English version
Home page
Updated on December 1, 2023

---------------------------------------------------------------------

・ プロフィール

・ 写真集

・ 軌道要素

Epoch 2023 Apr. 6.0 TT = JDT 2460040.5                                          
T 2023 Apr. 20.05038 TT                                 Rudenko                 
q   2.9240049            (2000.0)            P               Q                  
n   0.11409587     Peri.  225.42928     +0.98275018     -0.15158131             
a   4.2100711      Node   142.90794     +0.17470709     +0.94883912             
e   0.3054738      Incl.   10.11793     -0.06065899     +0.27699715             
P   8.64                                                                        
From 279 observations 2005 June 17-2021 July 13, mean residual 1".8.            

・ 光度変化

        m1 = 4.0 + 5 logΔ + 23.5 log r(t - 50)

---------------------------------------------------------------------

軌道要素はM.P.E.C. 2021-O56に掲載されたものです。
光度グラフはComet for Windowsで作成したものです。

---------------------------------------------------------------------

Copyright(C) Seiichi Yoshida (comet@aerith.net). All rights reserved.